Powrót do katalogu

STARLINK-32173

AktywnyŁącznośćVLEO
NORAD 60586·PAYLOAD·🇺🇸 United States

Wystrzelony Aug 20, 2024 z Cape Canaveral Space Force Station

Loading…

Następne Przeloty (najbliższe 24 godziny)

TLE

ŚwieżeSource: CelesTrak SupGP

Epoka: Sep 14, 2026, 22:30 UTC

1 60586C 24150D   26257.93798611 -.00062682  00000+0 -18520-2 0  2573
2 60586  53.1564 143.5794 0001274  85.3949  83.7145 15.34421749    15

Śledź STARLINK-32173 w czasie rzeczywistym z AllMySat

Download on the App Store